Date String (YYYY-MM-DD hh:mm:ss) UTC,Instrument flags,absolute air pressure of the measurement (hPa),sample flow rate (lpm),inlet stack bypass flow (lpm),air temperature of the measurement (°C),ambient temperature measured by the external sensor (°C),aerosol sample conditioner tube jacket temperature (°C),OPC LED temperature (°C),internal box temperature (°C),relative humidity of the measurement (%),span deviation,mass concentration of particles derived from Lorenz-Mie calculation of OPC scattering (μg/m³),mass concentration of particles derived from Lorenz-Mie calculation of OPC scattering (μg/m³),mass concentration of particles derived from Lorenz-Mie calculation of OPC scattering (μg/m³)
DateTimeUTC,F1_M11,P_M11,Q1_M11,Q2_M11,T1_M11,T2_M11,T3_M11,T4_M11,T5_M11,U1_M11,ZSPAN_M11,X0_M11,X2_M11,X1_M11
2023-11-23 20:00:00,SystemResetWarning,0830.0,5.00,000.00,021.7,020.7,000.0,030.2,022.8,17.4,0000.0,0008.46,0003.71,0003.16
2023-11-23 20:01:00,SystemResetWarning,0830.0,5.00,000.00,021.7,020.7,000.0,030.2,022.8,17.4,0000.0,0008.36,0003.69,0003.16
2023-11-23 20:02:00,SystemResetWarning,0830.0,5.01,000.00,021.7,020.7,000.0,030.2,022.8,17.4,0000.0,0008.13,0003.69,0003.16
2023-11-23 20:03:00,SystemResetWarning,0830.0,5.01,000.00,021.7,020.7,000.0,030.2,022.7,17.5,0000.0,0008.05,0003.72,0003.16
2023-11-23 20:04:00,SystemResetWarning,0830.0,5.00,000.00,021.6,020.7,000.0,030.1,022.6,17.5,0000.0,0008.00,0003.70,0003.16
2023-11-23 20:05:00,SystemResetWarning,0830.0,5.00,000.00,021.6,020.6,000.0,030.1,022.5,17.5,0000.0,0008.08,0003.72,0003.15
2023-11-23 20:06:00,SystemResetWarning,0830.0,5.00,000.00,021.6,020.6,000.0,030.1,022.5,17.6,0000.0,0008.02,0003.72,0003.15
2023-11-23 20:07:00,SystemResetWarning,0830.0,5.00,000.00,021.5,020.6,000.0,030.1,022.6,17.6,0000.0,0008.15,0003.74,0003.15
2023-11-23 20:08:00,SystemResetWarning,0830.0,5.00,000.00,021.5,020.6,000.0,030.1,022.6,17.6,0000.0,0008.61,0003.75,0003.15
2023-11-23 20:09:00,SystemResetWarning,0830.0,5.00,000.00,021.5,020.6,000.0,030.0,022.5,17.6,0000.0,0009.41,0003.75,0003.15
2023-11-23 20:10:00,SystemResetWarning,0830.0,5.01,000.00,021.5,020.6,000.0,030.0,022.5,17.7,0000.0,0008.85,0003.77,0003.14
2023-11-23 20:11:00,SystemResetWarning,0830.0,5.01,000.00,021.5,020.5,000.0,030.0,022.5,17.8,0000.0,0008.65,0003.82,0003.15
2023-11-23 20:12:00,SystemResetWarning,0830.0,5.00,000.00,021.5,020.6,000.0,030.0,022.6,17.8,0000.0,0008.77,0003.85,0003.16
2023-11-23 20:13:00,SystemResetWarning,0830.0,4.99,000.00,021.5,020.6,000.0,029.9,022.6,17.8,0000.0,0008.83,0003.86,0003.16
2023-11-23 20:14:00,SystemResetWarning,0830.0,5.00,000.00,021.5,020.6,000.0,029.9,022.6,17.8,0000.0,0008.78,0003.84,0003.16
2023-11-23 20:15:00,SystemResetWarning,0830.0,4.99,000.00,021.5,020.6,000.0,029.9,022.5,17.8,0000.0,0009.11,0003.83,0003.16
2023-11-23 20:16:00,SystemResetWarning,0830.0,4.99,000.00,021.4,020.5,000.0,029.9,022.4,17.8,0000.0,0009.17,0003.83,0003.17
2023-11-23 20:17:00,SystemResetWarning,0830.0,5.00,000.00,021.4,020.5,000.0,029.9,022.3,17.8,0000.0,0009.33,0003.84,0003.17
2023-11-23 20:18:00,SystemResetWarning,0830.1,5.01,000.00,021.4,020.4,000.0,029.9,022.3,17.8,0000.0,0009.22,0003.82,0003.16
2023-11-23 20:19:00,SystemResetWarning,0830.0,5.00,000.00,021.3,020.4,000.0,029.8,022.3,17.8,0000.0,0008.69,0003.79,0003.15
2023-11-23 20:20:00,SystemResetWarning,0830.0,5.00,000.00,021.3,020.4,000.0,029.8,022.3,17.9,0000.0,0007.71,0003.77,0003.15
2023-11-23 20:21:00,SystemResetWarning,0830.1,4.99,000.00,021.3,020.4,000.0,029.8,022.3,17.9,0000.0,0007.89,0003.78,0003.14
2023-11-23 20:22:00,SystemResetWarning,0830.0,4.99,000.00,021.3,020.4,000.0,029.8,022.3,17.9,0000.0,0008.11,0003.73,0003.12
2023-11-23 20:23:00,SystemResetWarning,0830.1,5.01,000.00,021.3,020.3,000.0,029.8,022.3,17.9,0000.0,0008.43,0003.68,0003.09
2023-11-23 20:24:00,SystemResetWarning,0830.0,5.01,000.00,021.3,020.3,000.0,029.8,022.4,17.9,0000.0,0008.63,0003.65,0003.08
2023-11-23 20:25:00,SystemResetWarning,0830.0,4.99,000.00,021.3,020.3,000.0,029.7,022.4,17.9,0000.0,0008.93,0003.65,0003.07
2023-11-23 20:26:00,SystemResetWarning,0830.0,4.99,000.00,021.3,020.4,000.0,029.7,022.4,17.9,0000.0,0008.80,0003.68,0003.07
2023-11-23 20:27:00,SystemResetWarning,0830.0,5.01,000.00,021.3,020.4,000.0,029.7,022.4,17.9,0000.0,0008.73,0003.66,0003.06
2023-11-23 20:28:00,SystemResetWarning,0830.0,5.01,000.00,021.3,020.4,000.0,029.7,022.4,17.9,0000.0,0008.75,0003.62,0003.05
2023-11-23 20:29:00,SystemResetWarning,0830.0,5.02,000.00,021.3,020.4,000.0,029.7,022.4,17.9,0000.0,0008.63,0003.58,0003.04
2023-11-23 20:30:00,SystemResetWarning,0830.0,4.99,000.00,021.3,020.4,000.0,029.7,022.4,17.8,0000.0,0009.52,0003.62,0003.06
2023-11-23 20:31:00,SystemResetWarning,0830.0,4.99,000.00,021.2,020.4,000.0,029.7,022.3,17.8,0000.0,0009.65,0003.61,0003.06
2023-11-23 20:32:00,SystemResetWarning,0829.9,5.00,000.00,021.2,020.3,000.0,029.7,022.3,17.8,0000.0,0009.47,0003.59,0003.06
2023-11-23 20:33:00,SystemResetWarning,0829.9,5.01,000.00,021.2,020.3,000.0,029.6,022.4,17.7,0000.0,0009.26,0003.62,0003.06
2023-11-23 20:34:00,SystemResetWarning,0830.0,5.01,000.00,021.2,020.3,000.0,029.6,022.4,17.8,0000.0,0009.08,0003.65,0003.08
2023-11-23 20:35:00,SystemResetWarning,0829.9,5.00,000.00,021.2,020.3,000.0,029.6,022.4,17.8,0000.0,0008.94,0003.68,0003.08
2023-11-23 20:36:00,SystemResetWarning,0829.9,4.99,000.00,021.2,020.3,000.0,029.6,022.3,17.8,0000.0,0008.78,0003.67,0003.07
2023-11-23 20:37:00,SystemResetWarning,0829.9,4.99,000.00,021.2,020.3,000.0,029.6,022.2,17.8,0000.0,0008.63,0003.64,0003.05
2023-11-23 20:38:00,SystemResetWarning,0829.9,5.00,000.00,021.2,020.3,000.0,029.6,022.2,17.8,0000.0,0008.52,0003.61,0003.05
2023-11-23 20:39:00,SystemResetWarning,0829.9,5.00,000.00,021.1,020.2,000.0,029.6,022.2,17.8,0000.0,0008.30,0003.61,0003.05
2023-11-23 20:40:00,SystemResetWarning,0829.9,4.99,000.00,021.1,020.2,000.0,029.6,022.2,17.9,0000.0,0008.38,0003.63,0003.06
2023-11-23 20:41:00,SystemResetWarning,0829.8,5.00,000.00,021.1,020.2,000.0,029.6,022.2,17.8,0000.0,0007.68,0003.63,0003.05
2023-11-23 20:42:00,SystemResetWarning,0829.8,4.99,000.00,021.1,020.2,000.0,029.6,022.3,17.9,0000.0,0007.37,0003.62,0003.04
2023-11-23 20:43:00,SystemResetWarning,0829.8,5.00,000.00,021.1,020.2,000.0,029.5,022.3,17.9,0000.0,0007.40,0003.64,0003.04
2023-11-23 20:44:00,SystemResetWarning,0829.8,5.00,000.00,021.1,020.2,000.0,029.5,022.3,17.9,0000.0,0007.35,0003.62,0003.06
2023-11-23 20:45:00,SystemResetWarning,0829.8,5.00,000.00,021.1,020.2,000.0,029.5,022.4,17.9,0000.0,0007.26,0003.60,0003.06
2023-11-23 20:46:00,SystemResetWarning,0829.8,5.01,000.00,021.1,020.2,000.0,029.5,022.4,17.9,0000.0,0007.14,0003.61,0003.06
2023-11-23 20:47:00,SystemResetWarning,0829.9,5.01,000.00,021.1,020.2,000.0,029.5,022.4,17.9,0000.0,0007.14,0003.61,0003.07
2023-11-23 20:48:00,SystemResetWarning,0829.8,5.01,000.00,021.1,020.2,000.0,029.5,022.3,17.9,0000.0,0007.19,0003.63,0003.08
2023-11-23 20:49:00,SystemResetWarning,0829.8,4.99,000.00,021.1,020.2,000.0,029.5,022.4,17.9,0000.0,0007.29,0003.66,0003.10
2023-11-23 20:50:00,SystemResetWarning,0829.9,4.99,000.00,021.1,020.2,000.0,029.5,022.4,17.9,0000.0,0007.44,0003.67,0003.10
2023-11-23 20:51:00,SystemResetWarning,0829.8,5.00,000.00,021.1,020.2,000.0,029.5,022.4,17.9,0000.0,0007.64,0003.69,0003.10
2023-11-23 20:52:00,SystemResetWarning,0829.8,5.01,000.00,021.1,020.2,000.0,029.5,022.4,17.8,0000.0,0008.03,0003.69,0003.09
2023-11-23 20:53:00,SystemResetWarning,0829.8,5.01,000.00,021.1,020.2,000.0,029.5,022.4,17.8,0000.0,0008.06,0003.68,0003.10
2023-11-23 20:54:00,SystemResetWarning,0829.8,5.00,000.00,021.1,020.2,000.0,029.5,022.4,17.8,0000.0,0007.98,0003.67,0003.10
2023-11-23 20:55:00,SystemResetWarning,0829.8,4.98,000.00,021.1,020.2,000.0,029.5,022.4,17.8,0000.0,0008.06,0003.69,0003.10
2023-11-23 20:56:00,SystemResetWarning,0829.8,5.00,000.00,021.1,020.2,000.0,029.5,022.4,17.8,0000.0,0008.22,0003.72,0003.10
2023-11-23 20:57:00,SystemResetWarning,0829.8,5.01,000.00,021.1,020.2,000.0,029.5,022.4,17.8,0000.0,0008.34,0003.73,0003.11
2023-11-23 20:58:00,SystemResetWarning,0829.8,5.01,000.00,021.1,020.2,000.0,029.5,022.4,17.9,0000.0,0008.18,0003.70,0003.10
2023-11-23 20:59:00,SystemResetWarning,0829.8,5.00,000.00,021.1,020.2,000.0,029.5,022.3,17.9,0000.0,0008.10,0003.68,0003.09
